TimeCDT,TemperatureF,Dew PointF,Humidity,Sea Level PressureIn,VisibilityMPH,Wind Direction,Wind SpeedMPH,Gust SpeedMPH,PrecipitationIn,Events,Conditions,WindDirDegrees,DateUTC
12:14 AM,51.8,50.0,94,30.04,10.0,NW,3.5,-,N/A,,Clear,310,2013-09-02 05:14:00
12:33 AM,51.8,48.2,88,30.04,10.0,Calm,Calm,-,N/A,,Clear,0,2013-09-02 05:33:00
12:53 AM,51.8,48.2,88,30.04,5.0,Calm,Calm,-,N/A,,Clear,0,2013-09-02 05:53:00
1:14 AM,51.8,48.2,88,30.04,2.0,West,3.5,-,N/A,,Clear,280,2013-09-02 06:14:00
1:33 AM,50.0,48.2,94,30.05,7.0,Calm,Calm,-,N/A,,Clear,0,2013-09-02 06:33:00
1:53 AM,50.0,48.2,94,30.05,10.0,Calm,Calm,-,N/A,,Clear,0,2013-09-02 06:53:00
2:13 AM,50.0,48.2,94,30.05,5.0,Calm,Calm,-,N/A,,Clear,0,2013-09-02 07:13:00
2:33 AM,51.8,48.2,88,30.05,10.0,Calm,Calm,-,N/A,,Clear,0,2013-09-02 07:33:00
2:54 AM,50.0,46.4,87,30.05,10.0,Calm,Calm,-,N/A,,Clear,0,2013-09-02 07:54:00
3:14 AM,50.0,46.4,87,30.06,10.0,NNW,3.5,-,N/A,,Clear,330,2013-09-02 08:14:00
3:33 AM,48.2,46.4,93,30.06,10.0,Calm,Calm,-,N/A,,Clear,0,2013-09-02 08:33:00
3:53 AM,48.2,46.4,93,30.06,10.0,Calm,Calm,-,N/A,,Clear,0,2013-09-02 08:53:00
4:14 AM,48.2,46.4,93,30.07,7.0,Calm,Calm,-,N/A,,Clear,0,2013-09-02 09:14:00
4:33 AM,48.2,46.4,93,30.07,3.0,Calm,Calm,-,N/A,,Clear,0,2013-09-02 09:33:00
4:53 AM,48.2,46.4,93,30.08,10.0,Calm,Calm,-,N/A,,Clear,0,2013-09-02 09:53:00
5:14 AM,46.4,46.4,100,30.08,10.0,Calm,Calm,-,N/A,,Clear,0,2013-09-02 10:14:00
5:33 AM,46.4,46.4,100,30.08,1.8,Calm,Calm,-,N/A,,Clear,0,2013-09-02 10:33:00
5:53 AM,44.6,44.6,100,30.09,2.0,Calm,Calm,-,N/A,,Clear,0,2013-09-02 10:53:00
6:13 AM,46.4,44.6,93,30.09,1.2,Calm,Calm,-,N/A,,Clear,0,2013-09-02 11:13:00
6:33 AM,46.4,44.6,93,30.09,10.0,Calm,Calm,-,N/A,,Clear,0,2013-09-02 11:33:00
6:54 AM,44.6,44.6,100,30.10,0.2,Calm,Calm,-,N/A,Fog,Fog,0,2013-09-02 11:54:00
7:13 AM,44.6,42.8,93,30.11,1.2,Calm,Calm,-,N/A,,Clear,0,2013-09-02 12:13:00
7:34 AM,46.4,44.6,93,30.11,10.0,Calm,Calm,-,N/A,,Clear,0,2013-09-02 12:34:00
7:53 AM,50.0,48.2,94,30.12,10.0,Calm,Calm,-,N/A,,Clear,0,2013-09-02 12:53:00
8:13 AM,51.8,50.0,94,30.12,10.0,Calm,Calm,-,N/A,,Clear,0,2013-09-02 13:13:00
8:33 AM,53.6,51.8,94,30.12,10.0,North,4.6,-,N/A,,Clear,360,2013-09-02 13:33:00
8:54 AM,55.4,53.6,94,30.12,10.0,North,5.8,-,N/A,,Clear,10,2013-09-02 13:54:00
9:13 AM,55.4,53.6,94,30.12,10.0,North,5.8,-,N/A,,Clear,10,2013-09-02 14:13:00
9:33 AM,57.2,53.6,88,30.12,10.0,North,6.9,-,N/A,,Clear,10,2013-09-02 14:33:00
9:54 AM,60.8,51.8,72,30.13,10.0,North,8.1,-,N/A,,Clear,360,2013-09-02 14:54:00
10:13 AM,62.6,50.0,63,30.13,10.0,NNE,5.8,-,N/A,,Clear,30,2013-09-02 15:13:00
10:33 AM,62.6,50.0,63,30.13,10.0,North,6.9,-,N/A,,Scattered Clouds,360,2013-09-02 15:33:00
10:53 AM,62.6,50.0,63,30.13,10.0,NNW,8.1,-,N/A,,Scattered Clouds,340,2013-09-02 15:53:00
11:13 AM,64.4,48.2,56,30.13,10.0,NNE,5.8,-,N/A,,Scattered Clouds,20,2013-09-02 16:13:00
11:33 AM,66.2,50.0,56,30.12,10.0,Calm,Calm,-,N/A,,Scattered Clouds,0,2013-09-02 16:33:00
11:53 AM,66.2,48.2,52,30.12,10.0,Calm,Calm,-,N/A,,Clear,0,2013-09-02 16:53:00
12:13 PM,68.0,48.2,49,30.11,10.0,NNW,8.1,-,N/A,,Clear,330,2013-09-02 17:13:00
12:33 PM,68.0,48.2,49,30.11,10.0,Calm,Calm,-,N/A,,Clear,0,2013-09-02 17:33:00
12:54 PM,68.0,46.4,46,30.10,10.0,North,4.6,-,N/A,,Clear,360,2013-09-02 17:54:00
1:13 PM,69.8,48.2,46,30.10,10.0,Calm,Calm,-,N/A,,Clear,0,2013-09-02 18:13:00
1:33 PM,69.8,48.2,46,30.10,10.0,NNW,4.6,-,N/A,,Clear,330,2013-09-02 18:33:00
1:53 PM,69.8,46.4,43,30.09,10.0,North,5.8,-,N/A,,Clear,360,2013-09-02 18:53:00
2:14 PM,71.6,46.4,41,30.09,10.0,North,6.9,-,N/A,,Clear,350,2013-09-02 19:14:00
2:33 PM,71.6,48.2,43,30.08,10.0,NNE,6.9,-,N/A,,Clear,30,2013-09-02 19:33:00
2:53 PM,71.6,46.4,41,30.07,10.0,Calm,Calm,-,N/A,,Clear,0,2013-09-02 19:53:00
3:14 PM,71.6,46.4,41,30.07,10.0,Calm,Calm,-,N/A,,Clear,0,2013-09-02 20:14:00
3:33 PM,73.4,46.4,38,30.06,10.0,North,5.8,-,N/A,,Clear,350,2013-09-02 20:33:00
3:53 PM,73.4,46.4,38,30.06,10.0,NNW,3.5,-,N/A,,Clear,330,2013-09-02 20:53:00
4:13 PM,73.4,46.4,38,30.06,10.0,NE,4.6,-,N/A,,Clear,40,2013-09-02 21:13:00
4:33 PM,73.4,46.4,38,30.05,10.0,NE,3.5,-,N/A,,Clear,40,2013-09-02 21:33:00
4:53 PM,73.4,46.4,38,30.05,10.0,Calm,Calm,-,N/A,,Clear,0,2013-09-02 21:53:00
5:13 PM,73.4,46.4,38,30.04,10.0,North,3.5,-,N/A,,Clear,350,2013-09-02 22:13:00
5:34 PM,73.4,46.4,38,30.04,10.0,Calm,Calm,-,N/A,,Clear,0,2013-09-02 22:34:00
5:53 PM,73.4,46.4,38,30.03,10.0,Calm,Calm,-,N/A,,Clear,0,2013-09-02 22:53:00
6:13 PM,73.4,46.4,38,30.03,10.0,Calm,Calm,-,N/A,,Clear,0,2013-09-02 23:13:00
6:33 PM,73.4,48.2,41,30.03,10.0,Calm,Calm,-,N/A,,Clear,0,2013-09-02 23:33:00
6:53 PM,73.4,48.2,41,30.03,10.0,Calm,Calm,-,N/A,,Clear,0,2013-09-02 23:53:00
7:13 PM,71.6,48.2,43,30.04,10.0,Calm,Calm,-,N/A,,Clear,0,2013-09-03 00:13:00
7:33 PM,68.0,53.6,60,30.04,10.0,Calm,Calm,-,N/A,,Clear,0,2013-09-03 00:33:00
7:53 PM,66.2,53.6,64,30.04,10.0,Calm,Calm,-,N/A,,Clear,0,2013-09-03 00:53:00
8:13 PM,64.4,55.4,73,30.04,10.0,Calm,Calm,-,N/A,,Clear,0,2013-09-03 01:13:00
8:33 PM,60.8,53.6,77,30.04,10.0,SE,3.5,-,N/A,,Clear,130,2013-09-03 01:33:00
8:53 PM,60.8,53.6,77,30.04,10.0,SE,4.6,-,N/A,,Clear,140,2013-09-03 01:53:00
9:13 PM,60.8,53.6,77,30.04,10.0,SE,3.5,-,N/A,,Clear,130,2013-09-03 02:13:00
9:33 PM,57.2,53.6,88,30.04,10.0,ESE,3.5,-,N/A,,Clear,120,2013-09-03 02:33:00
9:53 PM,57.2,51.8,82,30.05,10.0,Calm,Calm,-,N/A,,Clear,0,2013-09-03 02:53:00
10:13 PM,57.2,53.6,88,30.05,10.0,Calm,Calm,-,N/A,,Clear,0,2013-09-03 03:13:00
10:33 PM,55.4,51.8,88,30.05,10.0,Calm,Calm,-,N/A,,Clear,0,2013-09-03 03:33:00
10:53 PM,55.4,51.8,88,30.05,10.0,East,3.5,-,N/A,,Clear,90,2013-09-03 03:53:00
11:13 PM,53.6,51.8,94,30.05,10.0,Calm,Calm,-,N/A,,Clear,0,2013-09-03 04:13:00
11:33 PM,55.4,51.8,88,30.04,10.0,Calm,Calm,-,N/A,,Clear,0,2013-09-03 04:33:00
11:53 PM,53.6,51.8,94,30.04,10.0,Calm,Calm,-,N/A,,Clear,0,2013-09-03 04:53:00